SP3VKM-10 Weather Reports


time (UTC)temp
C
wind
direction
speed
KPH
gust
KPH
rain 1hr
cm
rain 24hr
cm
rain mn
cm
humidity
%
barometer
mb
20260503005111 16 0.0 0.0 0.00 0.00 0.00 99 1017.7
20260503003112 17 0.0 0.0 0.00 0.00 0.00 99 1017.8
20260502235110 17 0.0 0.0 0.00 0.00 0.00 1 1018.1
20260502233110 17 0.0 0.0 0.00 0.00 0.00 1 1018.2
20260502231109 18 0.0 0.0 0.00 0.00 0.00 1 1018.4
20260502225111 18 0.0 0.0 0.00 0.00 0.00 1 1018.6
20260502223111 18 0.0 0.0 0.00 0.00 0.00 2 1018.7
20260502221111 18 0.0 0.0 0.00 0.00 0.00 1 1018.8
20260502215110 18 0.0 0.0 0.00 0.00 0.00 21 1018.8
20260502213111 19 0.0 0.0 0.00 0.00 0.00 38 1018.9
20260502205110 19 0.0 0.0 0.00 0.00 0.00 36 1019.1
20260502203110 20 0.0 0.0 0.00 0.00 0.00 36 1019.2
20260502201110 20 0.0 0.0 0.00 0.00 0.00 40 1019.2
20260502195111 20 0.0 0.0 0.00 0.00 0.00 37 1019.3
20260502191112 21 0.0 0.0 0.00 0.00 0.00 23 1019.2
20260502181111 22 0.0 0.0 0.00 0.00 0.00 10 1019.2
20260502163111 22 0.0 0.0 0.00 0.00 0.00 1 1019.8
20260502161120 22 0.0 0.0 0.00 0.00 0.00 1 1020.0
20260502151111 22 0.0 0.0 0.00 0.00 0.00 1 1020.9
20260502123110 23 0.0 0.0 0.00 0.00 0.00 1 1023.0
20260502115111 22 0.0 0.0 0.00 0.00 0.00 1 1023.4
20260502105111 22 0.0 0.0 0.00 0.00 0.00 1 1024.0
20260502103111 22 0.0 0.0 0.00 0.00 0.00 1 1024.1
20260502101110 23 0.0 0.0 0.00 0.00 0.00 1 1024.4
20260502091110 23 0.0 0.0 0.00 0.00 0.00 1 1024.9
20260502071111 23 0.0 0.0 0.00 0.00 0.00 17 1025.4
20260502063111 22 0.0 0.0 0.00 0.00 0.00 25 1025.5
20260502061110 21 0.0 0.0 0.00 0.00 0.00 21 1025.6
20260502053110 18 0.0 0.0 0.00 0.00 0.00 99 1025.6
20260502051111 17 0.0 0.0 0.00 0.00 0.00 99 1025.6
20260502045110 16 0.0 0.0 0.00 0.00 0.00 99 1025.6
20260502041111 16 0.0 0.0 0.00 0.00 0.00 99 1025.5
20260502035110 16 0.0 0.0 0.00 0.00 0.00 99 1025.4
20260502033111 16 0.0 0.0 0.00 0.00 0.00 99 1025.6
20260502031111 16 0.0 0.0 0.00 0.00 0.00 99 1025.6
20260502025110 16 0.0 0.0 0.00 0.00 0.00 99 1025.6
20260502021110 16 0.0 0.0 0.00 0.00 0.00 99 1025.7
20260502015111 16 0.0 0.0 0.00 0.00 0.00 99 1025.7
20260502013110 16 0.0 0.0 0.00 0.00 0.00 99 1025.8
20260502011111 16 0.0 0.0 0.00 0.00 0.00 99 1025.8